When you browse on this site, cookies collect data to enhance your experience and personalize the content and advertising you see.
Visit our Privacy Policy to learn more. By continuing to use the site, you agree to this use of cookies and data.
  • In Hungary
  • List of Countries
  • For 7 days
  • Water Temperature
  • Satellite Maps
  • Weather Map
  • News
  • Weather Widgets
  • user-avatar
    Login

    Hourly Weather Kobylnica

    Today, 26 April, Friday

    Time Temperature Precipitation Wind Pressure Humidity
    00:00 +14°C° 0 mm 1 mps 756 mmHg 85%
    01:00 +14°C° 0 mm 1 mps 756 mmHg 86%
    02:00 +14°C° 0 mm 1 mps 756 mmHg 87%
    03:00 +14°C° 0 mm 1 mps 756 mmHg 88%
    04:00 +14°C° 0 mm 1 mps 755 mmHg 89%
    05:00 +15°C° 0 mm 2 mps 755 mmHg 85%
    06:00 +17°C° 0 mm 2 mps 755 mmHg 81%
    07:00 +18°C° 0 mm 2 mps 755 mmHg 77%
    08:00 +20°C° 0 mm 2 mps 755 mmHg 70%
    09:00 +22°C° 0 mm 3 mps 754 mmHg 62%
    10:00 +25°C° 0 mm 3 mps 754 mmHg 55%
    11:00 +26°C° 0 mm 3 mps 754 mmHg 50%
    12:00 +27°C° 0 mm 3 mps 754 mmHg 46%
    13:00 +28°C° 0 mm 2 mps 753 mmHg 42%
    14:00 +27°C° 0 mm 3 mps 753 mmHg 44%
    15:00 +27°C° 0 mm 3 mps 753 mmHg 46%
    16:00 +26°C° 0 mm 3 mps 752 mmHg 48%
    17:00 +25°C° 0.1 mm 3 mps 752 mmHg 54%
    18:00 +22°C° 0.1 mm 3 mps 752 mmHg 59%
    19:00 +21°C° 0.1 mm 4 mps 752 mmHg 65%
    20:00 +20°C° 0.2 mm 4 mps 752 mmHg 70%
    21:00 +19°C° 0.2 mm 4 mps 752 mmHg 74%
    22:00 +18°C° 0.2 mm 4 mps 752 mmHg 79%
    23:00 +18°C° 0 mm 3 mps 752 mmHg 80%

    Tomorrow, 27 April, Saturday

    Time Temperature Precipitation Wind Pressure Humidity
    00:00 +18°C° 0 mm 3 mps 752 mmHg 81%
    01:00 +17°C° 0 mm 2 mps 752 mmHg 82%
    02:00 +17°C° 0 mm 2 mps 751 mmHg 82%
    03:00 +17°C° 0 mm 2 mps 751 mmHg 83%
    04:00 +16°C° 0 mm 1 mps 751 mmHg 84%
    05:00 +16°C° 0.2 mm 2 mps 751 mmHg 84%
    06:00 +17°C° 0.2 mm 2 mps 751 mmHg 84%
    07:00 +17°C° 0.2 mm 2 mps 751 mmHg 84%
    08:00 +16°C° 0.3 mm 3 mps 751 mmHg 84%
    09:00 +15°C° 0.3 mm 4 mps 751 mmHg 84%
    10:00 +15°C° 0.3 mm 5 mps 752 mmHg 84%
    11:00 +14°C° 0.1 mm 6 mps 752 mmHg 83%
    12:00 +14°C° 0.1 mm 6 mps 752 mmHg 82%
    13:00 +14°C° 0.1 mm 6 mps 753 mmHg 82%
    14:00 +11°C° 0.1 mm 6 mps 753 mmHg 83%
    15:00 +10°C° 0.1 mm 6 mps 753 mmHg 84%
    16:00 +9°C° 0.1 mm 6 mps 753 mmHg 85%
    17:00 +9°C° 0.1 mm 6 mps 754 mmHg 83%
    18:00 +8°C° 0.1 mm 6 mps 754 mmHg 81%
    19:00 +8°C° 0.1 mm 6 mps 754 mmHg 79%
    20:00 +8°C° 0 mm 6 mps 755 mmHg 81%
    21:00 +7°C° 0 mm 5 mps 755 mmHg 82%
    22:00 +7°C° 0 mm 5 mps 755 mmHg 84%
    23:00 +7°C° 0 mm 5 mps 755 mmHg 84%

    Day after tomorrow, 28 April, Sunday

    Time Temperature Precipitation Wind Pressure Humidity
    00:00 +7°C° 0 mm 5 mps 755 mmHg 85%
    01:00 +7°C° 0 mm 4 mps 755 mmHg 85%
    02:00 +7°C° 0 mm 4 mps 755 mmHg 86%
    03:00 +6°C° 0 mm 4 mps 755 mmHg 87%
    04:00 +6°C° 0 mm 4 mps 755 mmHg 89%
    05:00 +7°C° 0 mm 4 mps 756 mmHg 85%
    06:00 +8°C° 0 mm 5 mps 756 mmHg 81%
    07:00 +9°C° 0 mm 5 mps 756 mmHg 78%
    08:00 +10°C° 0 mm 5 mps 757 mmHg 74%
    09:00 +11°C° 0 mm 6 mps 757 mmHg 71%
    10:00 +13°C° 0 mm 6 mps 757 mmHg 67%
    11:00 +13°C° 0 mm 6 mps 757 mmHg 67%
    12:00 +14°C° 0 mm 6 mps 758 mmHg 67%
    13:00 +14°C° 0 mm 6 mps 758 mmHg 67%
    14:00 +13°C° 0 mm 6 mps 758 mmHg 68%
    15:00 +13°C° 0 mm 5 mps 758 mmHg 70%
    16:00 +13°C° 0 mm 5 mps 758 mmHg 71%
    17:00 +12°C° 0 mm 5 mps 759 mmHg 74%
    18:00 +11°C° 0 mm 4 mps 759 mmHg 78%
    19:00 +10°C° 0 mm 4 mps 759 mmHg 82%
    20:00 +10°C° 0.2 mm 3 mps 759 mmHg 84%
    21:00 +9°C° 0.2 mm 3 mps 760 mmHg 87%
    22:00 +9°C° 0.2 mm 3 mps 760 mmHg 89%
    23:00 +9°C° 0.9 mm 3 mps 760 mmHg 91%

    29 April, Monday

    Time Temperature Precipitation Wind Pressure Humidity
    00:00 +8°C° 0.9 mm 4 mps 760 mmHg 93%
    01:00 +8°C° 0.9 mm 4 mps 760 mmHg 94%
    02:00 +8°C° 0.1 mm 3 mps 760 mmHg 95%
    03:00 +8°C° 0.1 mm 3 mps 760 mmHg 95%
    04:00 +8°C° 0.1 mm 2 mps 760 mmHg 96%
    05:00 +9°C° 0 mm 2 mps 760 mmHg 95%
    06:00 +9°C° 0 mm 2 mps 760 mmHg 94%
    07:00 +10°C° 0 mm 2 mps 761 mmHg 93%
    08:00 +11°C° 0 mm 3 mps 761 mmHg 85%
    09:00 +13°C° 0 mm 4 mps 761 mmHg 78%
    10:00 +14°C° 0 mm 5 mps 761 mmHg 70%
    11:00 +15°C° 0 mm 6 mps 761 mmHg 61%
    12:00 +15°C° 0 mm 6 mps 761 mmHg 52%
    13:00 +16°C° 0 mm 7 mps 761 mmHg 44%
    14:00 +15°C° 0 mm 7 mps 761 mmHg 44%
    15:00 +14°C° 0 mm 7 mps 761 mmHg 45%
    16:00 +12°C° 0 mm 7 mps 761 mmHg 46%
    17:00 +11°C° 0 mm 6 mps 761 mmHg 51%
    18:00 +10°C° 0 mm 6 mps 761 mmHg 55%
    19:00 +8°C° 0 mm 5 mps 761 mmHg 60%
    20:00 +7°C° 0 mm 5 mps 761 mmHg 63%
    21:00 +7°C° 0 mm 4 mps 762 mmHg 66%
    22:00 +6°C° 0 mm 4 mps 762 mmHg 69%
    23:00 +6°C° 0 mm 4 mps 762 mmHg 72%

    30 April, Tuesday

    Time Temperature Precipitation Wind Pressure Humidity
    00:00 +5°C° 0 mm 3 mps 762 mmHg 75%
    01:00 +5°C° 0 mm 3 mps 761 mmHg 77%
    02:00 +5°C° 0 mm 3 mps 761 mmHg 79%
    03:00 +5°C° 0 mm 3 mps 761 mmHg 80%
    04:00 +4°C° 0 mm 3 mps 761 mmHg 81%
    05:00 +7°C° 0 mm 3 mps 761 mmHg 76%
    06:00 +8°C° 0 mm 3 mps 761 mmHg 70%
    07:00 +10°C° 0 mm 3 mps 761 mmHg 65%
    08:00 +11°C° 0 mm 4 mps 761 mmHg 59%
    09:00 +12°C° 0 mm 4 mps 761 mmHg 53%
    10:00 +14°C° 0 mm 5 mps 761 mmHg 47%
    11:00 +14°C° 0 mm 5 mps 761 mmHg 46%
    12:00 +14°C° 0 mm 5 mps 761 mmHg 44%
    13:00 +14°C° 0 mm 5 mps 761 mmHg 43%
    14:00 +14°C° 0 mm 5 mps 761 mmHg 44%
    15:00 +13°C° 0 mm 5 mps 760 mmHg 45%
    16:00 +13°C° 0 mm 5 mps 760 mmHg 47%
    17:00 +11°C° 0 mm 4 mps 760 mmHg 52%
    18:00 +10°C° 0 mm 4 mps 760 mmHg 57%
    19:00 +8°C° 0 mm 3 mps 760 mmHg 62%
    20:00 +7°C° 0 mm 3 mps 760 mmHg 66%
    21:00 +7°C° 0 mm 2 mps 760 mmHg 70%
    22:00 +6°C° 0 mm 2 mps 760 mmHg 73%
    23:00 +5°C° 0 mm 2 mps 760 mmHg 75%

    1 May, Wednesday

    Time Temperature Precipitation Wind Pressure Humidity
    00:00 +5°C° 0 mm 2 mps 759 mmHg 76%
    01:00 +5°C° 0 mm 1 mps 759 mmHg 78%
    02:00 +5°C° 0 mm 1 mps 759 mmHg 78%
    03:00 +5°C° 0 mm 1 mps 758 mmHg 79%
    04:00 +5°C° 0 mm 1 mps 758 mmHg 80%
    05:00 +6°C° 0 mm 1 mps 758 mmHg 74%
    06:00 +8°C° 0 mm 1 mps 758 mmHg 67%
    07:00 +10°C° 0 mm 1 mps 758 mmHg 61%
    08:00 +11°C° 0 mm 1 mps 757 mmHg 56%
    09:00 +13°C° 0 mm 1 mps 757 mmHg 50%
    10:00 +15°C° 0 mm 1 mps 757 mmHg 44%
    11:00 +15°C° 0 mm 2 mps 757 mmHg 44%
    12:00 +16°C° 0 mm 2 mps 756 mmHg 43%
    13:00 +16°C° 0 mm 3 mps 756 mmHg 42%
    14:00 +16°C° 0 mm 3 mps 755 mmHg 44%
    15:00 +14°C° 0 mm 3 mps 755 mmHg 45%
    16:00 +13°C° 0 mm 3 mps 754 mmHg 46%
    17:00 +12°C° 0 mm 3 mps 754 mmHg 51%
    18:00 +10°C° 0 mm 2 mps 754 mmHg 55%
    19:00 +8°C° 0 mm 2 mps 753 mmHg 59%
    20:00 +7°C° 0 mm 2 mps 753 mmHg 60%
    21:00 +7°C° 0 mm 2 mps 753 mmHg 60%
    22:00 +6°C° 0 mm 2 mps 752 mmHg 61%
    23:00 +4°C° 0 mm 3 mps 752 mmHg 61%
    Show more